Challenge Cours la Province !

La Redoutable à Sprimont (13.30 km)

samedi 25 août 2018

Vous pouvez trouver Le classement original sur : www.otopservices.be  
CHALLENGE COURS LA PROVINCE
LA REDOUTABLE - SPRIMONT
DISTANCE : 13.32 km
samedi 25 août 2018
 
Place dos NOM Catégorie Pl/cat temps temps/km Vitesse
01:00:00              
1 209 ANTOINE RENARD SENIOR H 1 00:53:39 04:02 14.90
2 210 BENOIT LAMBOTTE SENIOR H 2 00:54:58 04:08 14.54
3 331 PIERRE VAN HAREN SENIOR H 3 00:57:47 04:20 13.83
4 564 YVES GARIN VETERAN 1 1 00:58:10 04:22 13.74
5 523 CHRISTOPHE SCHOLZEN SENIOR H 4 00:58:12 04:22 13.74
6 537 DAVID FRISON VETERAN 1 2 00:58:49 04:25 13.59
7 242 PHILIPPE VO VAN SENIOR H 5 00:59:21 04:27 13.47
8 543 PIERRE RESTIGLIAN SENIOR H 6 01:00:01 04:30 13.32
9 240 JEAN-PHILIPPE DEGEY VETERAN 1 3 01:00:44 04:34 13.16
10 577 CLARISSE WAGELMANS AINÉE 1 1 01:01:23 04:36 13.02
11 579 GUILLAUME EYEN ESPOIR H 1 01:02:27 04:41 12.80
12 224 JEAN-FRANCOIS LAMBRECHT SENIOR H 7 01:02:40 04:42 12.76
13 563 PIERRE IPACH VÉTÉRAN 2 1 01:03:12 04:45 12.65
14 237 ALEX CECCOTTI VETERAN 1 4 01:03:15 04:45 12.64
15 566 LUC BROUIR VÉTÉRAN 2 2 01:03:35 04:46 12.57
16 207 CHRISTOPHE POLIS SENIOR H 8 01:03:39 04:47 12.56
17 230 PHILIPPE ROI VÉTÉRAN 2 3 01:03:42 04:47 12.55
18 270 CHRIS HENET VÉTÉRAN 2 4 01:03:48 04:47 12.53
19 562 JACQUES DELFOSSE VETERAN 1 5 01:03:59 04:48 12.49
20 244 MARC LEONARD VETERAN 1 6 01:04:43 04:51 12.35
21 225 PIERRE WILLEMS VETERAN 1 7 01:04:45 04:52 12.35
22 254 KEVIN NOLS SENIOR H 9 01:06:38 05:00 12.00
23 251 ANTONINO OLEFS SENIOR H 10 01:06:40 05:00 11.99
24 322 ERIC PATRIARCA SENIOR H 11 01:06:50 05:01 11.96
25 211 VINCENT DEGUELDRE SENIOR H 12 01:06:54 05:01 11.95
26 260 JULIEN CREPPE SENIOR H 13 01:08:03 05:06 11.75
27 238 JEROME LAFOURTE SENIOR H 14 01:08:04 05:07 11.74
28 582 ILIASS OUAHID SENIOR H 15 01:08:31 05:09 11.67
29 538 RENAUD SCHUTZ VETERAN 1 8 01:08:58 05:11 11.59
30 578 MICHEL BERTRAND VETERAN 3 1 01:09:03 05:11 11.58
31 217 MICHAEL VANDENDRIESSCHE VETERAN 1 9 01:09:31 05:13 11.50
32 513 MANUEL BOSCOLO VETERAN 1 10 01:10:03 05:15 11.41
33 248 DIMITRI GYSEN SENIOR H 16 01:11:25 05:22 11.19
34 587 LAURENT KNAPEN VETERAN 3 2 01:11:57 05:24 11.11
35 572 CHILDERIC RENARD VETERAN 1 11 01:12:12 05:25 11.07
36 545 CORENTIN LECLERE SENIOR H 17 01:12:36 05:27 11.01
37 547 KEVIN WASSON SENIOR H 18 01:12:42 05:27 11.00
38 581 WILLIAM LATHOUWERS SENIOR H 19 01:13:02 05:29 10.95
39 239 MICKAEL STEVART SENIOR H 20 01:13:06 05:29 10.94
40 232 GEOFFREY DUYCKAERTS SENIOR H 21 01:13:26 05:31 10.89
41 319 NOEL LEVAUX VETERAN 1 12 01:14:05 05:34 10.79
42 269 DENIS DEFRERE SENIOR H 22 01:14:10 05:34 10.78
43 261 CLEMENT MARTIN SENIOR H 23 01:14:28 05:35 10.73
44 234 VINCENT PIRARD SENIOR H 24 01:14:49 05:37 10.68
45 542 YVES HANQUET VÉTÉRAN 2 5 01:14:55 05:37 10.67
46 219 BERNARD ETIENNE VÉTÉRAN 2 6 01:15:15 05:39 10.62
47 205 ALINE GOBERT SENIOR D 1 01:15:26 05:40 10.60
48 266 ALIZEE BALAZUN SENIOR D 2 01:15:42 05:41 10.56
49 530 MARCELLO CARACINI VÉTÉRAN 2 7 01:15:46 05:41 10.55
50 208 JONATHAN PETRON SENIOR H 25 01:15:51 05:42 10.54
51 335 ANTONIO PIRARD SENIOR H 26 01:16:25 05:44 10.46
52 570 LAURENT COUSIN SENIOR H 27 01:17:33 05:49 10.31
53 202 DIEDERIK RADDOUX SENIOR H 28 01:17:53 05:51 10.26
54 569 LAURENT TIMMERS SENIOR H 29 01:18:21 05:53 10.20
55 568 MURIELLE ADAM SENIOR D 3 01:18:21 05:53 10.20
56 321 CHRISTOPHE DETRIXHE VETERAN 1 13 01:18:35 05:54 10.17
57 571 CHRISTOPHE GARROY VETERAN 1 14 01:18:43 05:54 10.16
58 329 TITOUAN MARVILLE ESPOIR H 2 01:18:50 05:55 10.14
59 330 PAULINE SCHILS AINÉE 1 2 01:18:55 05:55 10.13
60 256 STEVE RENSONNET SENIOR H 30 01:19:07 05:56 10.10
61 554 DELPHINE LONDOT AINÉE 1 3 01:19:11 05:57 10.10
62 567 JEAN-MARIE CHUDYBA VÉTÉRAN 2 8 01:19:13 05:57 10.09
63 268 JON HENSGENS VETERAN 3 3 01:19:41 05:59 10.03
64 586 ALEXANDRO ZAMPESE SENIOR H 31 01:20:02 06:00 9.99
65 548 CORENTIN WASSON ESPOIR H 3 01:20:29 06:02 9.93
66 553 CELINE TRIBOLET SENIOR D 4 01:20:32 06:03 9.93
67 253 FLORENT CLOSSET SENIOR H 32 01:20:33 06:03 9.92
68 259 JOSS PIFFET SENIOR H 33 01:20:46 06:04 9.90
69 580 CLAIRE VIATOUR SENIOR D 5 01:20:48 06:04 9.89
70 324 THIBAUT MOREAU SENIOR H 34 01:21:57 06:09 9.75
71 250 ISABELLE VRANKEN AINÉE 1 4 01:22:09 06:10 9.73
72 241 THOMAS DEWULF SENIOR H 35 01:22:20 06:11 9.71
73 262 VANESSA PIRE SENIOR D 6 01:24:31 06:21 9.46
74 263 ARNAUT LEONARD SENIOR H 36 01:24:33 06:21 9.45
75 206 BRUNO SIMON VETERAN 3 4 01:24:47 06:22 9.43
76 544 JEAN-PAUL HOUTAIN VÉTÉRAN 2 9 01:24:58 06:23 9.41
77 559 LUCIEN ARNOULD VETERAN 1 15 01:25:16 06:24 9.38
78 235 GREGORY VERHEYEN SENIOR H 37 01:25:23 06:25 9.36
79 228 FRANCOIS DEPRE VÉTÉRAN 2 10 01:25:49 06:26 9.32
80 584 FREDERIC DE CECCO VETERAN 1 16 01:26:07 06:28 9.28
81 215 MARIE POULIN SENIOR D 7 01:26:39 06:30 9.23
82 264 OLIVIER LERUTH VETERAN 1 17 01:27:06 06:32 9.18
83 533 GAELLE FISCHER SENIOR D 8 01:27:40 06:35 9.12
84 532 OLIVIER DELVAUX VETERAN 1 18 01:27:41 06:35 9.12
85 328 MARTINE COLIN AINÉE 1 5 01:27:52 06:36 9.10
86 550 NICOLAS WARNANT ESPOIR H 4 01:28:16 06:38 9.06
87 222 STEPHANIE SCHROEDER SENIOR D 9 01:29:08 06:41 8.97
88 221 JONATHAN ROCCA SENIOR H 38 01:29:11 06:42 8.96
89 556 PIERRE VERJANS VETERAN 3 5 01:29:23 06:43 8.94
90 247 LARA DEFECHEREUX ESPOIR D 1 01:29:36 06:44 8.92
91 536 GERARD PIFFET VÉTÉRAN 2 11 01:29:48 06:44 8.90
92 585 MICHAEL DE CECCO VETERAN 1 19 01:30:00 06:45 8.88
93 203 DOMINIQUE SUSSOT VÉTÉRAN 2 12 01:30:02 06:45 8.88
94 552 MARC LIBION VÉTÉRAN 2 13 01:30:03 06:46 8.88
95 229 GUILLAUME ROGGEMAN SENIOR H 39 01:30:58 06:50 8.79
96 546 GREGORY BAAR SENIOR H 40 01:31:19 06:51 8.75
97 265 ANNE DUMBRUCH AINÉE 1 6 01:32:09 06:55 8.67
98 246 EVE LEMERE AINÉE 1 7 01:32:16 06:56 8.66
99 565 BEATRICE FADEUR AINÉE 2 1 01:33:21 07:00 8.56
100 527 ETIENNE VANDERSCHELDEN VETERAN 3 6 01:34:19 07:05 8.48
101 220 BERNARD GRZESINSKI VÉTÉRAN 2 14 01:34:36 07:06 8.45
102 204 DAVOUDI MADIA AINÉE 1 8 01:34:37 07:06 8.45
103 213 MARTINE DACO AINÉE 1 9 01:34:42 07:06 8.44
104 575 AURELIE GILSON SENIOR D 10 01:34:58 07:08 8.42
105 512 VERONIQUE STAS AINÉE 1 10 01:35:01 07:08 8.41
106 583 EMILIE COLLEYE SENIOR D 11 01:37:09 07:18 8.23
107 526 SANDRA DELSAUX SENIOR D 12 01:37:20 07:18 8.21
108 549 ANDRE WASSON VÉTÉRAN 2 15 01:37:44 07:20 8.18
109 511 NICOLAS DAMRY SENIOR H 41 01:37:45 07:20 8.18
110 541 DAVID COLLARD VETERAN 1 20 01:38:45 07:25 8.10
111 227 AURIANE ROGGEMAN SENIOR D 13 01:39:26 07:28 8.04
112 320 MICHEL SAINT-REMI VÉTÉRAN 2 16 01:40:25 07:32 7.96
113 591 CAROLINE FEKETE AINÉE 2 2 01:41:02 07:35 7.91
114 252 PIERRE RAVIGNA VETERAN 3 7 01:41:02 07:35 7.91
115 218 LIDIJA JURIN SENIOR D 14 01:43:19 07:45 7.74
116 325 OCEANE JAQUET SENIOR D 15 01:45:14 07:54 7.60
117 323 CATHERINE DEMOULIN AINÉE 2 3 01:45:41 07:56 7.56
118 332 VALERIE GILLET AINÉE 1 11 01:51:20 08:21 7.18
119 531 AURELIE PETERS SENIOR D 16 01:56:12 08:43 6.88
120 326 BENJAMIN GABRIEL SENIOR H 42 01:57:54 08:51 6.78
121 551 JOELLE SCHMETZ AINÉE 2 4 02:20:42 10:34 5.68
122 588 CAROLINE COLINET AINÉE 1 12 02:20:42 10:34 5.68